Location: Adavinekkalam
(16.6301°N, 80.7229°E)
Time: 11:48:13
(UTC+00:00)

COSMOS 2406 - Pass Details

Date: 15 May 2026
Orbit: 846 x 859 km, 71.0° (Epoch: 6 June)

Event Time Altitude Azimuth Distance (km) Brightness Sun altitude
Rises 14:22:48 0° 193° (SSW) 3,416 6.2 -18.8°
Reaches altitude 10° 14:25:15 10° 191° (S) 2,482 5.5 -19.4°
Maximum altitude 14:30:57 78° 106° (ESE) 878 3.1 -20.6°
Drops below altitude 10° 14:36:40 10° 20° (NNE) 2,487 5.7 -21.8°
Sets 14:39:07 0° 19° (NNE) 3,424 6.5 -22.3°
